Regional Weather Roundup
Issued by NWS

Home | Current Version | Previous Version | Graphics & Text | Print | Product List | Glossary On
Versions: 1 2 3 4 5 6 7 8 9 10 11 12 13 14 15 16 17 18 19 20 21 22 23 24 25 26 27 28 29 30 31 32 33 34 35 36 37 38 39 40 41 42 43 44 45 46 47 48 49 50
000
ASUS43 KTOP 230908
RWRKS

WEATHER ROUNDUP FOR KANSAS
NATIONAL WEATHER SERVICE GOODLAND KS
400 AM CDT SAT AUG 23 2014

NOTE:  "FAIR" INDICATES FEW OR NO CLOUDS BELOW 12,000 FEET WITH NO
SIGNIFICANT WEATHER AND/OR OBSTRUCTIONS TO VISIBILITY.

KSZ001>006-013>018-027>032-041>047-231000-
NORTHWEST KANSAS

CITY           SKY/WX    TMP DP  RH WIND       PRES   REMARKS
GOODLAND       CLOUDY    65  64  97 SW8       29.96R
HAYS           PTCLDY    70  64  83 E5        29.87F
HILL CITY      CLOUDY    69  67  93 E3        29.88F
RUSSELL        CLEAR     69  66  90 NE5       29.85F
$$

KSZ061>065-074>080-084>089-231000-
SOUTHWEST KANSAS

CITY           SKY/WX    TMP DP  RH WIND       PRES   REMARKS
DODGE CITY     PTCLDY    69  62  78 S8        29.91F
ELKHART          N/A     73  58  59 S9          N/A
GARDEN CITY    MOCLDY    69  63  81 W12       29.90F
GREAT BEND     CLEAR     75  57  53 S7        29.87F
LIBERAL        PTCLDY    66  59  77 S6        29.94F
PRATT          CLEAR     72  54  53 SW8       29.91F
$$

KSZ066>073-081>083-090>101-231000-
SOUTHEAST KANSAS

CITY           SKY/WX    TMP DP  RH WIND       PRES   REMARKS
CHANUTE        CLEAR     78  69  73 S10       29.93S
COFFEYVILLE    CLEAR     78  70  76 S9        29.93S
HUTCHINSON     MOCLDY    77  63  61 S9        29.89S
MEDICINE LODGE   N/A     77  56  48 SE8       29.89F
NEWTON         CLEAR     79  59  50 S13       29.93S
PARSONS        CLEAR     77  70  79 S3        29.94S
WICHITA INTL   PTCLDY    76  63  64 S10       29.89F
WICHITA JABRA  CLEAR     77  63  61 S10       29.90F
WICHITA MCCONL CLEAR     77  63  61 S12       29.90F
WINFIELD       CLEAR     76  63  64 S10       29.92S
$$

KSZ007>012-019>026-033>040-048>060-102>105-231000-
NORTHEAST KANSAS

CITY           SKY/WX    TMP DP  RH WIND       PRES   REMARKS
CONCORDIA      PTCLDY    73  72  96 E6        29.86F
EMPORIA        CLEAR     74  67  78 S14       29.89F
LAWRENCE       PTCLDY    78  70  76 SE5       29.89F
MANHATTAN      MOCLDY    82  66  58 SW15      29.84F
MARYSVILLE     RAIN      73  73 100 N7        29.87F
OLATHE IND     CLEAR     77  72  84 S8        29.91F
OLATHE EXE     CLEAR     77  71  82 S8        29.90F
SALINA         CLEAR     79  64  60 S8        29.85F
TOPEKA BILLARD CLEAR     81  70  69 S6        29.87F
TOPEKA FORBES  PTCLDY    80  68  66 S10       29.88F
$$


USA.gov is the U.S. government's official web portal to all federal, state and local government web resources and services.